When you browse on this site, cookies collect data to enhance your experience and personalize the content and advertising you see.
Visit our Privacy Policy to learn more. By continuing to use the site, you agree to this use of cookies and data.
  • In Österreich
  • Länderverzeichnis
  • Für 7 Tage
  • Wassertemperatur
  • Satellitenkarten
  • Wetterkarte
  • News
  • Widgets
  • user-avatar
    Anmelden

    Stündliche Wetter Borovaya

    Heute, 16 Juli, Dienstag

    Zeit Temperatur Niederschläge Wind Luftdruck Luftfeuchtigkeit
    00:00 +15°C° 0.1 mm 1 m/S 745 mmHg 89%
    01:00 +15°C° 0.1 mm 1 m/S 745 mmHg 89%
    02:00 +14°C° 0 mm 1 m/S 745 mmHg 91%
    03:00 +14°C° 0.1 mm 1 m/S 745 mmHg 91%
    04:00 +14°C° 0.1 mm 1 m/S 745 mmHg 92%
    05:00 +14°C° 0.1 mm 1 m/S 745 mmHg 93%
    06:00 +15°C° 0 mm 1 m/S 745 mmHg 88%
    07:00 +18°C° 0 mm 1 m/S 745 mmHg 83%
    08:00 +18°C° 0 mm 2 m/S 745 mmHg 78%
    09:00 +20°C° 0.4 mm 2 m/S 745 mmHg 71%
    10:00 +21°C° 0.4 mm 2 m/S 745 mmHg 64%
    11:00 +23°C° 0.4 mm 2 m/S 745 mmHg 57%
    12:00 +23°C° 0 mm 2 m/S 744 mmHg 55%
    13:00 +24°C° 0 mm 2 m/S 744 mmHg 52%
    14:00 +25°C° 0 mm 2 m/S 744 mmHg 50%
    15:00 +24°C° 0 mm 2 m/S 744 mmHg 52%
    16:00 +24°C° 0 mm 2 m/S 743 mmHg 53%
    17:00 +24°C° 0 mm 2 m/S 743 mmHg 55%
    18:00 +21°C° 0.1 mm 2 m/S 743 mmHg 62%
    19:00 +20°C° 0.1 mm 1 m/S 743 mmHg 69%
    20:00 +18°C° 0.1 mm 1 m/S 743 mmHg 76%
    21:00 +18°C° 0 mm 1 m/S 743 mmHg 77%
    22:00 +16°C° 0 mm 1 m/S 743 mmHg 79%
    23:00 +15°C° 0 mm 1 m/S 743 mmHg 81%

    Morgen, 17 Juli, Mittwoch

    Zeit Temperatur Niederschläge Wind Luftdruck Luftfeuchtigkeit
    00:00 +15°C° 0.1 mm 1 m/S 743 mmHg 83%
    01:00 +15°C° 0.1 mm 1 m/S 743 mmHg 86%
    02:00 +14°C° 0.1 mm 1 m/S 743 mmHg 89%
    03:00 +14°C° 0.1 mm 2 m/S 742 mmHg 90%
    04:00 +15°C° 0.1 mm 2 m/S 742 mmHg 92%
    05:00 +14°C° 0.1 mm 3 m/S 742 mmHg 93%
    06:00 +14°C° 0 mm 3 m/S 742 mmHg 91%
    07:00 +16°C° 0 mm 3 m/S 742 mmHg 88%
    08:00 +15°C° 0 mm 4 m/S 742 mmHg 86%
    09:00 +18°C° 0 mm 4 m/S 742 mmHg 78%
    10:00 +19°C° 0 mm 4 m/S 742 mmHg 70%
    11:00 +20°C° 0 mm 4 m/S 742 mmHg 63%
    12:00 +20°C° 0.2 mm 4 m/S 742 mmHg 62%
    13:00 +21°C° 0.2 mm 4 m/S 742 mmHg 62%
    14:00 +21°C° 0.2 mm 5 m/S 741 mmHg 62%
    15:00 +21°C° 0.4 mm 4 m/S 741 mmHg 64%
    16:00 +20°C° 0.4 mm 4 m/S 741 mmHg 67%
    17:00 +20°C° 0.4 mm 3 m/S 741 mmHg 69%
    18:00 +18°C° 0.4 mm 3 m/S 741 mmHg 74%
    19:00 +17°C° 0.4 mm 3 m/S 741 mmHg 80%
    20:00 +15°C° 0.4 mm 2 m/S 741 mmHg 86%
    21:00 +15°C° 0 mm 2 m/S 741 mmHg 88%
    22:00 +14°C° 0 mm 2 m/S 741 mmHg 90%
    23:00 +13°C° 0 mm 2 m/S 742 mmHg 92%

    übermorgen, 18 Juli, Donnerstag

    Zeit Temperatur Niederschläge Wind Luftdruck Luftfeuchtigkeit
    00:00 +13°C° 0 mm 2 m/S 742 mmHg 92%
    01:00 +12°C° 0 mm 2 m/S 742 mmHg 93%
    02:00 +12°C° 0 mm 2 m/S 742 mmHg 93%
    03:00 +12°C° 0 mm 2 m/S 742 mmHg 93%
    04:00 +12°C° 0 mm 2 m/S 742 mmHg 94%
    05:00 +12°C° 0 mm 2 m/S 742 mmHg 94%
    06:00 +13°C° 0 mm 2 m/S 742 mmHg 90%
    07:00 +14°C° 0 mm 3 m/S 742 mmHg 85%
    08:00 +16°C° 0 mm 3 m/S 742 mmHg 81%
    09:00 +18°C° 0.1 mm 3 m/S 742 mmHg 75%
    10:00 +19°C° 0.1 mm 4 m/S 742 mmHg 69%
    11:00 +20°C° 0.1 mm 4 m/S 743 mmHg 64%
    12:00 +20°C° 0.6 mm 5 m/S 743 mmHg 66%
    13:00 +20°C° 0.6 mm 5 m/S 743 mmHg 69%
    14:00 +20°C° 0.6 mm 6 m/S 743 mmHg 71%
    15:00 +20°C° 0.4 mm 5 m/S 743 mmHg 73%
    16:00 +19°C° 0.4 mm 5 m/S 743 mmHg 75%
    17:00 +19°C° 0.4 mm 5 m/S 743 mmHg 76%
    18:00 +18°C° 0.1 mm 4 m/S 743 mmHg 81%
    19:00 +17°C° 0.1 mm 4 m/S 743 mmHg 86%
    20:00 +16°C° 0.1 mm 3 m/S 743 mmHg 90%
    21:00 +14°C° 0 mm 3 m/S 744 mmHg 92%
    22:00 +13°C° 0 mm 3 m/S 744 mmHg 93%
    23:00 +13°C° 0 mm 3 m/S 744 mmHg 95%

    19 Juli, Freitag

    Zeit Temperatur Niederschläge Wind Luftdruck Luftfeuchtigkeit
    00:00 +13°C° 0 mm 3 m/S 744 mmHg 96%
    01:00 +13°C° 0 mm 3 m/S 744 mmHg 96%
    02:00 +13°C° 0 mm 3 m/S 744 mmHg 97%
    03:00 +13°C° 0 mm 3 m/S 745 mmHg 97%
    04:00 +13°C° 0 mm 3 m/S 745 mmHg 97%
    05:00 +13°C° 0 mm 3 m/S 745 mmHg 97%
    06:00 +14°C° 0 mm 3 m/S 745 mmHg 91%
    07:00 +17°C° 0 mm 4 m/S 746 mmHg 86%
    08:00 +18°C° 0 mm 4 m/S 746 mmHg 80%
    09:00 +19°C° 0 mm 4 m/S 746 mmHg 73%
    10:00 +21°C° 0 mm 5 m/S 746 mmHg 65%
    11:00 +22°C° 0 mm 5 m/S 747 mmHg 57%
    12:00 +23°C° 0.1 mm 5 m/S 747 mmHg 56%
    13:00 +23°C° 0.1 mm 5 m/S 747 mmHg 55%
    14:00 +25°C° 0.1 mm 5 m/S 747 mmHg 54%
    15:00 +23°C° 0.1 mm 5 m/S 747 mmHg 56%
    16:00 +23°C° 0.1 mm 4 m/S 747 mmHg 58%
    17:00 +23°C° 0.1 mm 4 m/S 747 mmHg 59%
    18:00 +21°C° 0 mm 3 m/S 747 mmHg 64%
    19:00 +20°C° 0 mm 3 m/S 748 mmHg 69%
    20:00 +18°C° 0 mm 2 m/S 748 mmHg 74%
    21:00 +17°C° 0 mm 2 m/S 748 mmHg 77%
    22:00 +16°C° 0 mm 2 m/S 748 mmHg 81%
    23:00 +16°C° 0 mm 2 m/S 749 mmHg 84%

    20 Juli, Samstag

    Zeit Temperatur Niederschläge Wind Luftdruck Luftfeuchtigkeit
    00:00 +15°C° 0 mm 2 m/S 749 mmHg 87%
    01:00 +15°C° 0 mm 2 m/S 749 mmHg 89%
    02:00 +14°C° 0 mm 2 m/S 749 mmHg 92%
    03:00 +14°C° 0 mm 2 m/S 749 mmHg 92%
    04:00 +14°C° 0 mm 2 m/S 750 mmHg 92%
    05:00 +14°C° 0 mm 2 m/S 750 mmHg 92%
    06:00 +16°C° 0 mm 2 m/S 750 mmHg 85%
    07:00 +18°C° 0 mm 2 m/S 750 mmHg 78%
    08:00 +20°C° 0 mm 2 m/S 750 mmHg 71%
    09:00 +21°C° 0 mm 3 m/S 750 mmHg 65%
    10:00 +24°C° 0 mm 3 m/S 751 mmHg 59%
    11:00 +25°C° 0 mm 3 m/S 751 mmHg 53%
    12:00 +25°C° 0 mm 3 m/S 751 mmHg 52%
    13:00 +26°C° 0 mm 3 m/S 751 mmHg 50%
    14:00 +26°C° 0 mm 3 m/S 751 mmHg 48%
    15:00 +26°C° 0 mm 3 m/S 751 mmHg 50%
    16:00 +26°C° 0 mm 3 m/S 750 mmHg 52%
    17:00 +26°C° 0 mm 3 m/S 750 mmHg 55%
    18:00 +24°C° 0 mm 2 m/S 751 mmHg 61%
    19:00 +21°C° 0 mm 2 m/S 751 mmHg 67%
    20:00 +20°C° 0 mm 1 m/S 751 mmHg 73%
    21:00 +20°C° 0 mm 1 m/S 751 mmHg 76%
    22:00 +19°C° 0 mm 1 m/S 751 mmHg 79%
    23:00 +18°C° 0 mm 1 m/S 751 mmHg 81%

    21 Juli, Sonntag

    Zeit Temperatur Niederschläge Wind Luftdruck Luftfeuchtigkeit
    00:00 +15°C° 0 mm 0 m/S 751 mmHg 82%
    01:00 +15°C° 0 mm 0 m/S 751 mmHg 83%
    02:00 +15°C° 0 mm 0 m/S 751 mmHg 84%
    03:00 +15°C° 0 mm 0 m/S 752 mmHg 83%
    04:00 +15°C° 0 mm 0 m/S 752 mmHg 83%
    05:00 +16°C° 0 mm 1 m/S 752 mmHg 82%
    06:00 +18°C° 0 mm 1 m/S 752 mmHg 77%
    07:00 +20°C° 0 mm 1 m/S 752 mmHg 71%
    08:00 +22°C° 0 mm 1 m/S 752 mmHg 65%
    09:00 +23°C° 0 mm 2 m/S 752 mmHg 60%
    10:00 +24°C° 0 mm 2 m/S 752 mmHg 55%
    11:00 +26°C° 0 mm 2 m/S 752 mmHg 50%
    12:00 +26°C° 0 mm 2 m/S 752 mmHg 49%
    13:00 +26°C° 0 mm 3 m/S 752 mmHg 48%
    14:00 +27°C° 0 mm 3 m/S 752 mmHg 47%
    15:00 +26°C° 0 mm 3 m/S 752 mmHg 50%
    16:00 +26°C° 0 mm 3 m/S 752 mmHg 52%
    17:00 +26°C° 0 mm 2 m/S 752 mmHg 55%
    18:00 +24°C° 0 mm 2 m/S 752 mmHg 60%
    19:00 +21°C° 0 mm 2 m/S 752 mmHg 65%
    20:00 +20°C° 0 mm 1 m/S 752 mmHg 70%
    21:00 +20°C° 0 mm 1 m/S 752 mmHg 73%
    22:00 +19°C° 0 mm 1 m/S 753 mmHg 76%
    23:00 +18°C° 0 mm 1 m/S 753 mmHg 79%
    Mehr zeigen